DLH3EY EDDM-EDDH

Flight info

Callsign DLH3EY
Flight time 1h 6m
Altitude 36000
Route INPUD2N/26R INPUD Y102 UPALA M726 NARUS DCT ABGUS DCT DIRBO/N0346F230 T902 RARUP RARUP6A
Aircraft A320/M-SDE2E3FGIJ1LORWXYZ/HB1

Departure

Time 2026-05-07 19:01
Airport Munich Airport (EDDM)

Arrival

Time 2026-05-07 20:07
Airport Hamburg Helmut Schmidt Airport (EDDH)
Time Latitude Longitude Altitude Speed Heading
2026-05-07 18:17 48.35208 11.79779 1471 ft 0 kts 83°
2026-05-07 18:41 48.35206 11.79750 1475 ft 4 kts 83°
2026-05-07 18:42 48.35203 11.79709 1476 ft 4 kts 83°
2026-05-07 18:42 48.35201 11.79678 1475 ft 4 kts 98°
2026-05-07 18:42 48.35210 11.79643 1475 ft 4 kts 139°
2026-05-07 18:42 48.35232 11.79629 1475 ft 4 kts 173°
2026-05-07 18:43 48.35246 11.79626 1476 ft 0 kts 173°
2026-05-07 18:46 48.35245 11.79612 1478 ft 5 kts 271°
2026-05-07 18:46 48.35288 11.79552 1478 ft 13 kts 345°
2026-05-07 18:47 48.35395 11.79532 1485 ft 17 kts 353°
2026-05-07 18:47 48.35506 11.79579 1476 ft 17 kts 12°
2026-05-07 18:47 48.35628 11.79559 1485 ft 18 kts 354°
2026-05-07 18:47 48.35758 11.79537 1480 ft 19 kts 353°
2026-05-07 18:48 48.35890 11.79514 1478 ft 19 kts 353°
2026-05-07 18:48 48.35992 11.79496 1483 ft 10 kts 353°
2026-05-07 18:48 48.36033 11.79489 1481 ft 0 kts 353°
2026-05-07 18:53 48.36038 11.79489 1476 ft 4 kts 353°
2026-05-07 18:53 48.36103 11.79477 1485 ft 15 kts 353°
2026-05-07 18:54 48.36211 11.79511 1485 ft 17 kts 61°
2026-05-07 18:54 48.36233 11.79720 1479 ft 25 kts 83°
2026-05-07 18:54 48.36254 11.79990 1485 ft 26 kts 83°
2026-05-07 18:54 48.36274 11.80267 1480 ft 27 kts 84°
2026-05-07 18:55 48.36296 11.80549 1479 ft 27 kts 83°
2026-05-07 18:55 48.36319 11.80835 1483 ft 28 kts 83°
2026-05-07 18:55 48.36341 11.81125 1482 ft 28 kts 83°
2026-05-07 18:55 48.36364 11.81418 1485 ft 28 kts 83°
2026-05-07 18:56 48.36387 11.81715 1485 ft 29 kts 83°
2026-05-07 18:56 48.36399 11.81961 1485 ft 18 kts 69°
2026-05-07 18:56 48.36512 11.81991 1472 ft 18 kts 353°
2026-05-07 18:56 48.36562 11.81983 1485 ft 0 kts 354°
2026-05-07 18:57 48.36564 11.81982 1485 ft 3 kts 354°
2026-05-07 18:57 48.36626 11.81970 1475 ft 15 kts 347°
2026-05-07 18:58 48.36668 11.81846 1475 ft 11 kts 263°
2026-05-07 18:58 48.36667 11.81830 1472 ft 0 kts 263°
2026-05-07 19:00 48.36664 11.81796 1472 ft 12 kts 263°
2026-05-07 19:00 48.36628 11.81335 1485 ft 81 kts 263°
2026-05-07 19:00 48.36540 11.80185 1485 ft 139 kts 263°
2026-05-07 19:01 48.36406 11.78517 1600 ft 172 kts 264°
2026-05-07 19:01 48.36278 11.76767 2342 ft 169 kts 265°
2026-05-07 19:01 48.36160 11.74999 3035 ft 171 kts 265°
2026-05-07 19:01 48.36034 11.73118 3370 ft 191 kts 265°
2026-05-07 19:02 48.35880 11.71057 3753 ft 205 kts 264°
2026-05-07 19:02 48.35704 11.68825 4073 ft 226 kts 265°
2026-05-07 19:02 48.35899 11.66461 4754 ft 233 kts 297°
2026-05-07 19:02 48.37033 11.64671 5255 ft 252 kts 332°
2026-05-07 19:03 48.38771 11.63906 5842 ft 266 kts 349°
2026-05-07 19:03 48.40633 11.63599 6665 ft 272 kts 353°
2026-05-07 19:03 48.42535 11.63397 7473 ft 276 kts 353°
2026-05-07 19:03 48.44416 11.62856 8264 ft 276 kts 338°
2026-05-07 19:04 48.46237 11.61915 9103 ft 279 kts 337°
2026-05-07 19:04 48.48074 11.60921 9958 ft 281 kts 336°
2026-05-07 19:04 48.49937 11.59902 10599 ft 291 kts 336°
2026-05-07 19:04 48.51905 11.58832 10884 ft 311 kts 336°
2026-05-07 19:05 48.54009 11.57705 11233 ft 330 kts 338°
2026-05-07 19:05 48.56295 11.56959 11770 ft 342 kts 348°
2026-05-07 19:05 48.58632 11.56428 12444 ft 346 kts 348°
2026-05-07 19:05 48.61057 11.55886 13192 ft 349 kts 348°
2026-05-07 19:06 48.63469 11.55355 13865 ft 353 kts 348°
2026-05-07 19:06 48.68351 11.54292 15102 ft 359 kts 348°
2026-05-07 19:06 48.70836 11.53746 15753 ft 362 kts 348°
2026-05-07 19:07 48.73338 11.53193 16401 ft 364 kts 348°
2026-05-07 19:07 48.75848 11.52638 17048 ft 366 kts 348°
2026-05-07 19:07 48.78380 11.52076 17679 ft 369 kts 348°
2026-05-07 19:07 48.80925 11.51509 18292 ft 371 kts 348°
2026-05-07 19:08 48.83493 11.50936 18830 ft 374 kts 348°
2026-05-07 19:08 48.86072 11.50358 19343 ft 376 kts 348°
2026-05-07 19:08 48.88671 11.49777 19866 ft 379 kts 348°
2026-05-07 19:08 48.91290 11.49193 20375 ft 381 kts 348°
2026-05-07 19:09 48.93925 11.48607 20883 ft 384 kts 348°
2026-05-07 19:09 48.96578 11.48015 21370 ft 387 kts 348°
2026-05-07 19:09 48.99259 11.47415 21824 ft 391 kts 348°
2026-05-07 19:09 49.01955 11.46811 22297 ft 393 kts 348°
2026-05-07 19:10 49.04672 11.46205 22765 ft 396 kts 348°
2026-05-07 19:10 49.07406 11.45592 23216 ft 399 kts 348°
2026-05-07 19:10 49.10162 11.44972 23674 ft 401 kts 348°
2026-05-07 19:10 49.12930 11.44347 24061 ft 404 kts 348°
2026-05-07 19:11 49.15723 11.43717 24443 ft 406 kts 348°
2026-05-07 19:11 49.18525 11.43084 24827 ft 408 kts 349°
2026-05-07 19:11 49.21347 11.42446 25190 ft 411 kts 349°
2026-05-07 19:11 49.24175 11.41807 25556 ft 413 kts 349°
2026-05-07 19:12 49.27026 11.41160 25926 ft 415 kts 349°
2026-05-07 19:12 49.29891 11.40507 26299 ft 417 kts 349°
2026-05-07 19:12 49.32769 11.39851 26644 ft 419 kts 349°
2026-05-07 19:12 49.35658 11.39197 26999 ft 420 kts 349°
2026-05-07 19:13 49.38554 11.38539 27348 ft 422 kts 349°
2026-05-07 19:13 49.41480 11.37927 27705 ft 425 kts 351°
2026-05-07 19:13 49.44420 11.37425 28069 ft 426 kts 352°
2026-05-07 19:13 49.47383 11.36994 28419 ft 429 kts 353°
2026-05-07 19:14 49.50330 11.36595 28746 ft 430 kts 353°
2026-05-07 19:14 49.53346 11.36168 29070 ft 432 kts 352°
2026-05-07 19:14 49.56303 11.35729 29382 ft 434 kts 352°
2026-05-07 19:14 49.59315 11.35268 29685 ft 436 kts 352°
2026-05-07 19:15 49.62336 11.34796 29982 ft 437 kts 352°
2026-05-07 19:15 49.65366 11.34323 30254 ft 439 kts 353°
2026-05-07 19:15 49.68418 11.33849 30473 ft 441 kts 353°
2026-05-07 19:15 49.71479 11.33373 30680 ft 443 kts 352°
2026-05-07 19:16 49.74559 11.32895 30895 ft 446 kts 352°
2026-05-07 19:16 49.77646 11.32421 31035 ft 446 kts 352°
2026-05-07 19:16 49.83819 11.31477 31065 ft 446 kts 352°
2026-05-07 19:17 49.89994 11.30526 31064 ft 446 kts 353°
2026-05-07 19:17 49.96184 11.29590 31068 ft 447 kts 353°
2026-05-07 19:18 50.02369 11.28635 31075 ft 447 kts 353°
2026-05-07 19:18 50.08554 11.27672 31075 ft 447 kts 353°
2026-05-07 19:19 50.14727 11.26708 31073 ft 446 kts 353°
2026-05-07 19:19 50.20901 11.25740 31071 ft 446 kts 353°
2026-05-07 19:20 50.27086 11.24757 31077 ft 451 kts 353°
2026-05-07 19:20 50.33373 11.23775 31086 ft 461 kts 353°
2026-05-07 19:21 50.39775 11.22776 31223 ft 463 kts 353°
2026-05-07 19:21 50.42977 11.22275 31521 ft 463 kts 353°
2026-05-07 19:21 50.46178 11.21772 31800 ft 463 kts 353°
2026-05-07 19:22 50.49388 11.21264 32063 ft 463 kts 353°
2026-05-07 19:22 50.52591 11.20753 32331 ft 463 kts 353°
2026-05-07 19:22 50.55795 11.20240 32554 ft 464 kts 353°
2026-05-07 19:22 50.59008 11.19726 32797 ft 464 kts 353°
2026-05-07 19:23 50.62239 11.19210 33079 ft 464 kts 353°
2026-05-07 19:23 50.65433 11.18695 33333 ft 464 kts 353°
2026-05-07 19:23 50.68650 11.18179 33602 ft 464 kts 353°
2026-05-07 19:23 50.71859 11.17667 33883 ft 464 kts 353°
2026-05-07 19:24 50.75068 11.17154 34141 ft 463 kts 353°
2026-05-07 19:24 50.78273 11.16641 34354 ft 463 kts 353°
2026-05-07 19:24 50.81483 11.16126 34565 ft 464 kts 353°
2026-05-07 19:24 50.84699 11.15608 34762 ft 464 kts 353°
2026-05-07 19:25 50.87912 11.15092 34963 ft 465 kts 353°
2026-05-07 19:25 50.91138 11.14571 35167 ft 465 kts 353°
2026-05-07 19:25 50.94358 11.14050 35361 ft 466 kts 353°
2026-05-07 19:25 50.97589 11.13530 35555 ft 466 kts 353°
2026-05-07 19:26 51.00814 11.13008 35740 ft 467 kts 352°
2026-05-07 19:26 51.04006 11.12492 35921 ft 467 kts 352°
2026-05-07 19:26 51.07239 11.11968 36061 ft 468 kts 353°
2026-05-07 19:26 51.10493 11.11441 36109 ft 469 kts 353°
2026-05-07 19:27 51.16980 11.10375 36104 ft 469 kts 353°
2026-05-07 19:27 51.23466 11.09318 36102 ft 468 kts 353°
2026-05-07 19:28 51.29953 11.08254 36106 ft 469 kts 353°
2026-05-07 19:28 51.36449 11.07175 36101 ft 469 kts 353°
2026-05-07 19:29 51.42938 11.06109 36105 ft 469 kts 353°
2026-05-07 19:29 51.49434 11.05032 36111 ft 469 kts 353°
2026-05-07 19:30 51.55925 11.03956 36124 ft 469 kts 353°
2026-05-07 19:30 51.62423 11.02875 36118 ft 469 kts 353°
2026-05-07 19:31 51.68915 11.01796 36120 ft 469 kts 353°
2026-05-07 19:31 51.75414 11.00713 36121 ft 469 kts 353°
2026-05-07 19:32 51.81885 10.99633 36115 ft 468 kts 353°
2026-05-07 19:32 51.85095 10.99097 35930 ft 458 kts 353°
2026-05-07 19:32 51.88232 10.98574 35543 ft 451 kts 353°
2026-05-07 19:33 51.91346 10.98050 35001 ft 448 kts 353°
2026-05-07 19:33 51.94444 10.97525 34422 ft 446 kts 353°
2026-05-07 19:33 51.97529 10.97000 33761 ft 445 kts 353°
2026-05-07 19:33 52.00598 10.96478 33145 ft 442 kts 353°
2026-05-07 19:34 52.03639 10.95958 32619 ft 437 kts 353°
2026-05-07 19:34 52.06647 10.95446 32093 ft 432 kts 353°
2026-05-07 19:34 52.09579 10.94946 31577 ft 427 kts 353°
2026-05-07 19:34 52.12510 10.94446 31076 ft 422 kts 353°
2026-05-07 19:35 52.15427 10.93947 30586 ft 418 kts 353°
2026-05-07 19:35 52.18307 10.93458 30079 ft 414 kts 353°
2026-05-07 19:35 52.21193 10.92969 29502 ft 410 kts 353°
2026-05-07 19:35 52.23982 10.92495 28942 ft 406 kts 353°
2026-05-07 19:36 52.26784 10.92015 28373 ft 403 kts 353°
2026-05-07 19:36 52.29564 10.91539 27801 ft 400 kts 353°
2026-05-07 19:36 52.32328 10.91066 27243 ft 397 kts 353°
2026-05-07 19:36 52.35063 10.90598 26698 ft 394 kts 353°
2026-05-07 19:37 52.37785 10.90128 26159 ft 391 kts 353°
2026-05-07 19:37 52.40511 10.89653 25218 ft 399 kts 353°
2026-05-07 19:37 52.43311 10.89165 24169 ft 410 kts 353°
2026-05-07 19:37 52.46161 10.88671 23381 ft 412 kts 353°
2026-05-07 19:38 52.48048 10.88344 22907 ft 411 kts 353°
2026-05-07 19:38 52.50889 10.87851 22268 ft 408 kts 353°
2026-05-07 19:38 52.53703 10.87365 21661 ft 405 kts 353°
2026-05-07 19:38 52.56498 10.86882 21072 ft 402 kts 353°
2026-05-07 19:39 52.59264 10.86400 20498 ft 399 kts 353°
2026-05-07 19:39 52.62011 10.85923 19952 ft 396 kts 353°
2026-05-07 19:39 52.64741 10.85450 19398 ft 393 kts 353°
2026-05-07 19:39 52.67452 10.84983 18868 ft 390 kts 353°
2026-05-07 19:40 52.70147 10.84515 18344 ft 387 kts 353°
2026-05-07 19:40 52.72817 10.84047 17770 ft 385 kts 353°
2026-05-07 19:40 52.75469 10.83580 17229 ft 382 kts 353°
2026-05-07 19:40 52.78103 10.83115 16710 ft 379 kts 353°
2026-05-07 19:41 52.80714 10.82655 16204 ft 376 kts 353°
2026-05-07 19:41 52.83300 10.82204 15711 ft 373 kts 353°
2026-05-07 19:41 52.85880 10.81753 15214 ft 370 kts 353°
2026-05-07 19:41 52.88435 10.81306 14741 ft 368 kts 353°
2026-05-07 19:42 52.90969 10.80861 14268 ft 365 kts 353°
2026-05-07 19:42 52.93489 10.80414 13782 ft 363 kts 353°
2026-05-07 19:42 52.95984 10.79970 13395 ft 356 kts 353°
2026-05-07 19:42 52.98404 10.79539 13264 ft 343 kts 353°
2026-05-07 19:43 53.00738 10.79124 13099 ft 331 kts 353°
2026-05-07 19:43 53.02979 10.78726 12802 ft 326 kts 353°
2026-05-07 19:43 53.05254 10.78322 12404 ft 323 kts 353°
2026-05-07 19:43 53.07458 10.77930 12092 ft 322 kts 353°
2026-05-07 19:44 53.09679 10.77536 11830 ft 321 kts 354°
2026-05-07 19:44 53.11896 10.77146 11575 ft 320 kts 354°
2026-05-07 19:44 53.14108 10.76757 11323 ft 319 kts 354°
2026-05-07 19:44 53.16302 10.76367 11077 ft 317 kts 354°
2026-05-07 19:45 53.18498 10.75975 10826 ft 316 kts 354°
2026-05-07 19:45 53.20682 10.75586 10578 ft 315 kts 354°
2026-05-07 19:45 53.22852 10.75195 10335 ft 314 kts 354°
2026-05-07 19:45 53.25018 10.74803 10090 ft 310 kts 354°
2026-05-07 19:46 53.27094 10.74423 9943 ft 292 kts 354°
2026-05-07 19:46 53.29063 10.74032 9807 ft 275 kts 349°
2026-05-07 19:46 53.30754 10.72854 9620 ft 257 kts 328°
2026-05-07 19:46 53.32210 10.71197 9187 ft 251 kts 325°
2026-05-07 19:47 53.33614 10.69491 8676 ft 248 kts 324°
2026-05-07 19:47 53.34998 10.67785 8170 ft 246 kts 324°
2026-05-07 19:47 53.36365 10.66084 7652 ft 244 kts 324°
2026-05-07 19:47 53.37717 10.64384 7197 ft 240 kts 324°
2026-05-07 19:48 53.39046 10.62699 7115 ft 240 kts 324°
2026-05-07 19:48 53.40386 10.60997 7113 ft 242 kts 324°
2026-05-07 19:48 53.41728 10.59290 7117 ft 242 kts 324°
2026-05-07 19:48 53.43072 10.57580 7118 ft 243 kts 324°
2026-05-07 19:49 53.44415 10.55870 7113 ft 243 kts 324°
2026-05-07 19:49 53.45759 10.54156 7119 ft 243 kts 324°
2026-05-07 19:49 53.47101 10.52442 6982 ft 241 kts 324°
2026-05-07 19:49 53.48424 10.50744 6479 ft 239 kts 324°
2026-05-07 19:50 53.49737 10.49044 5937 ft 238 kts 323°
2026-05-07 19:50 53.50933 10.47124 5386 ft 238 kts 315°
2026-05-07 19:50 53.52056 10.45098 5029 ft 235 kts 315°
2026-05-07 19:50 53.53173 10.43052 4990 ft 239 kts 314°
2026-05-07 19:51 53.54296 10.40988 4990 ft 240 kts 314°
2026-05-07 19:51 53.55433 10.38918 4992 ft 240 kts 314°
2026-05-07 19:51 53.56577 10.36868 4990 ft 241 kts 314°
2026-05-07 19:51 53.57733 10.34807 4992 ft 242 kts 314°
2026-05-07 19:52 53.58885 10.32753 4990 ft 242 kts 314°
2026-05-07 19:52 53.60038 10.30700 5001 ft 241 kts 314°
2026-05-07 19:52 53.61192 10.28649 5003 ft 241 kts 314°
2026-05-07 19:52 53.62199 10.26423 5002 ft 241 kts 292°
2026-05-07 19:53 53.62444 10.23669 5008 ft 240 kts 260°
2026-05-07 19:53 53.61823 10.21100 5008 ft 239 kts 234°
2026-05-07 19:53 53.60834 10.18839 5007 ft 240 kts 230°
2026-05-07 19:53 53.59797 10.16638 5008 ft 240 kts 229°
2026-05-07 19:54 53.58751 10.14438 5008 ft 240 kts 230°
2026-05-07 19:54 53.57709 10.12249 5009 ft 240 kts 230°
2026-05-07 19:54 53.56662 10.10058 5012 ft 240 kts 230°
2026-05-07 19:54 53.55607 10.07871 5011 ft 242 kts 229°
2026-05-07 19:55 53.54545 10.05674 5010 ft 242 kts 229°
2026-05-07 19:55 53.53482 10.03479 5009 ft 242 kts 229°
2026-05-07 19:55 53.52420 10.01288 5009 ft 242 kts 229°
2026-05-07 19:55 53.51361 9.99100 5010 ft 242 kts 229°
2026-05-07 19:56 53.50297 9.96905 5010 ft 242 kts 229°
2026-05-07 19:56 53.49234 9.94710 5010 ft 242 kts 229°
2026-05-07 19:56 53.48173 9.92521 5010 ft 242 kts 229°
2026-05-07 19:56 53.47121 9.90355 5010 ft 242 kts 229°
2026-05-07 19:57 53.46085 9.88219 4980 ft 227 kts 229°
2026-05-07 19:57 53.45110 9.86199 4708 ft 220 kts 229°
2026-05-07 19:57 53.44156 9.84215 4328 ft 218 kts 229°
2026-05-07 19:57 53.43210 9.82238 3996 ft 215 kts 229°
2026-05-07 19:58 53.42272 9.80273 3985 ft 217 kts 229°
2026-05-07 19:58 53.41326 9.78296 3984 ft 218 kts 229°
2026-05-07 19:58 53.40376 9.76310 3990 ft 218 kts 229°
2026-05-07 19:58 53.39425 9.74324 3985 ft 218 kts 229°
2026-05-07 19:59 53.38478 9.72344 3980 ft 218 kts 229°
2026-05-07 19:59 53.37575 9.70312 3976 ft 219 kts 242°
2026-05-07 19:59 53.37291 9.67830 3978 ft 220 kts 278°
2026-05-07 19:59 53.37891 9.65526 3980 ft 218 kts 313°
2026-05-07 20:00 53.39069 9.64005 3978 ft 213 kts 343°
2026-05-07 20:00 53.40502 9.63849 3983 ft 207 kts 19°
2026-05-07 20:00 53.41803 9.64833 3987 ft 205 kts 32°
2026-05-07 20:00 53.43031 9.66048 3986 ft 205 kts 34°
2026-05-07 20:01 53.44251 9.67297 4012 ft 205 kts 34°
2026-05-07 20:01 53.45465 9.68552 4008 ft 205 kts 34°
2026-05-07 20:01 53.46682 9.69811 4010 ft 205 kts 34°
2026-05-07 20:01 53.47886 9.71058 4004 ft 199 kts 34°
2026-05-07 20:02 53.49017 9.72221 4024 ft 182 kts 34°
2026-05-07 20:02 53.50071 9.73301 4006 ft 175 kts 36°
2026-05-07 20:02 53.50982 9.74656 3656 ft 179 kts 50°
2026-05-07 20:02 53.51807 9.76241 3286 ft 178 kts 52°
2026-05-07 20:03 53.52591 9.77794 3013 ft 170 kts 52°
2026-05-07 20:03 53.53327 9.79265 2761 ft 158 kts 53°
2026-05-07 20:03 53.54016 9.80645 2566 ft 148 kts 53°
2026-05-07 20:03 53.54657 9.81929 2355 ft 139 kts 53°
2026-05-07 20:04 53.55271 9.83165 2164 ft 136 kts 53°
2026-05-07 20:04 53.55876 9.84380 1980 ft 135 kts 53°
2026-05-07 20:04 53.56476 9.85589 1789 ft 134 kts 53°
2026-05-07 20:04 53.57073 9.86796 1602 ft 134 kts 53°
2026-05-07 20:05 53.57672 9.88004 1408 ft 134 kts 52°
2026-05-07 20:05 53.58269 9.89210 1221 ft 134 kts 53°
2026-05-07 20:05 53.58859 9.90418 1049 ft 132 kts 54°
2026-05-07 20:05 53.59449 9.91590 887 ft 131 kts 53°
2026-05-07 20:06 53.60036 9.92767 698 ft 131 kts 51°
2026-05-07 20:06 53.60622 9.93948 514 ft 131 kts 51°
2026-05-07 20:06 53.61209 9.95131 360 ft 131 kts 51°
2026-05-07 20:06 53.61800 9.96319 148 ft 133 kts 51°
2026-05-07 20:07 53.62378 9.97483 43 ft 120 kts 50°
2026-05-07 20:07 53.62815 9.98371 43 ft 74 kts 50°
2026-05-07 20:07 53.63072 9.98892 46 ft 50 kts 50°
2026-05-07 20:07 53.63249 9.99252 47 ft 32 kts 55°
2026-05-07 20:08 53.63288 9.99560 48 ft 16 kts 99°
2026-05-07 20:08 53.63282 9.99618 48 ft 0 kts 100°
2026-05-07 20:09 53.63280 9.99629 48 ft 4 kts 100°
2026-05-07 20:09 53.63277 9.99738 48 ft 14 kts 79°
2026-05-07 20:09 53.63336 9.99877 48 ft 16 kts 50°
2026-05-07 20:10 53.63396 10.00160 48 ft 10 kts 155°
2026-05-07 20:10 53.63372 10.00206 48 ft 7 kts 107°
2026-05-07 20:10 53.63371 10.00302 47 ft 6 kts 86°
2026-05-07 20:10 53.63373 10.00339 48 ft 2 kts 86°
2026-05-07 20:11 53.63373 10.00346 48 ft 0 kts 86°